This is the latest recevied weather packets stored in our database for station/object N9ALD. If no packets are shown the sender has not sent any weather packets the latest 10 day(s).
| Time | Temp. | Humidity | Pressure | Rain* | Wind** | Luminosity | Snow |
|---|---|---|---|---|---|---|---|
| 1777683610 | 8.33° C | 74% | 1012.9 hPa | 0 mm | - | 0 W/m² | - |
| 1777683308 | 8.89° C | 74% | 1012.8 hPa | 0 mm | - | 0 W/m² | - |
| 1777683006 | 8.89° C | 68% | 1013 hPa | 0 mm | - | 1 W/m² | - |
| 1777682701 | 8.89° C | 68% | 1013.1 hPa | 0 mm | - | 2 W/m² | - |
| 1777682398 | 8.89° C | 69% | 1013.1 hPa | 0 mm | - | 3 W/m² | - |
| 1777682095 | 9.44° C | 68% | 1012.9 hPa | 0 mm | - | 5 W/m² | - |
| 1777681792 | 9.44° C | 67% | 1012.9 hPa | 0 mm | - | 7 W/m² | - |
| 1777681489 | 9.44° C | 68% | 1012.9 hPa | 0 mm | - | 10 W/m² | - |
| 1777681187 | 9.44° C | 67% | 1012.6 hPa | 0 mm | - | 14 W/m² | - |
| 1777680884 | 9.44° C | 67% | 1012.6 hPa | 0 mm | - | 14 W/m² | - |
| 1777680581 | 9.44° C | 66% | 1012.5 hPa | 0 mm | - | 17 W/m² | - |
| 1777680280 | 9.44° C | 64% | 1012.7 hPa | 0 mm | - | 20 W/m² | - |
| 1777679975 | 10° C | 64% | 1012.5 hPa | 0 mm | - | 24 W/m² | - |
| 1777679671 | 10° C | 64% | 1012.6 hPa | 0 mm | - | 28 W/m² | - |
| 1777679367 | 10.56° C | 63% | 1012.5 hPa | 0 mm | - | 32 W/m² | - |
| 1777679064 | 10.56° C | 61% | 1012.4 hPa | 0 mm | - | 32 W/m² | - |
| 1777678762 | 11.11° C | 58% | 1012.7 hPa | 0 mm | - | 34 W/m² | - |
| 1777678459 | 11.67° C | 58% | 1012.6 hPa | 0 mm | - | 62 W/m² | - |
| 1777678154 | 11.67° C | 55% | 1012.8 hPa | 0 mm | - | 73 W/m² | - |
| 1777677852 | 11.67° C | 55% | 1012.7 hPa | 0 mm | - | 85 W/m² | - |
| 1777677550 | 11.67° C | 57% | 1012.6 hPa | 0 mm | - | 90 W/m² | - |
| 1777677248 | 11.67° C | 54% | 1012.6 hPa | 0 mm | - | 97 W/m² | - |
| 1777676946 | 11.11° C | 58% | 1012.7 hPa | 0 mm | - | 111 W/m² | - |
| 1777676644 | 11.11° C | 57% | 1012.6 hPa | 0 mm | - | 123 W/m² | - |
| 1777676341 | 11.11° C | 56% | 1012.9 hPa | 0 mm | - | 138 W/m² | - |
* Rain latest hour (hover to see other rain measurements)
** Current wind speed in m/s (hover to see current wind gust speed)